www.pogodaiklimat.ru

Погода и климат >> Архив погоды >> Монголия >> Хадатын


ПОГОДА в Хадатыне

  • Прогноз погоды в Хадатыне
  • Монитор погоды в Хадатыне

АРХИВ ПОГОДЫ в Хадатыне

Время (UTC), дата Ветер
(напр.,м/с)
 
Видим.   Явления Облачность Т
(С)
Тd
(С)
f
(%)
Тe
(С)
Тes
(С)
Комфортность P
(гПа)
Po
(гПа)
Тmin
(С)
Tmax
(С)
R
(мм)
R24
(мм)
S
(см)
21 10.06 Ю 1 50 км 8/0
[Ac As]
+18.6 +5.9 43 +20 +20 1000.5 916.4
00 11.06 штиль 0 50 км 4/0
[Ac lent]
+23.9 +3.3 26 +23 +28 комфорт 1000.7 918.1 +18.5
03 11.06 СВ 6 50 км 4/0
[Ci sp]
+25.9 0.0 18 +24 +30 комфорт 1000.7 918.6
06 11.06 В 7
{11}
50 км 8/5 600 м
[Cu hum Ac lent Ci sp]
+28.4 -1.3 14 +26 +27 жарко 999.9 918.6
09 11.06 С 9
{14}
50 км пыльный позёмок 9/5 600 м
[Cu med, cong Ac lent Cs]
+24.4 +5.5 30 +24 +24 комфорт 1003.0 920.3
12 11.06 СВ 5 50 км 8/5 1000 м
[Sc Ac lent]
+20.1 +4.9 37 +21 +21 комфорт 1008.0 923.8 +29.2
15 11.06 СВ 3 н/о 6/0
[Ac und]
+16.3 +5.1 47 +16 +16 1012.5 926.8
18 11.06 штиль 0 н/о 8/0
[Ac und]
+13.0 +4.8 57 +13 +13 1015.1 928.2
21 11.06 штиль 0 50 км 3/0
[Ac lent]
+9.2 +3.8 69 +9 +9 1017.4 929.2
00 12.06 штиль 0 50 км 3/0
[Ac lent Ci]
+15.2 +5.3 52 +15 +20 1016.8 930.4 +8.8
03 12.06 штиль 0 50 км 4/3 600 м
[Cu hum Ci]
+21.3 +3.9 32 +22 +36 комфорт 1014.6 930.1
06 12.06 штиль 0 50 км 6/6 600 м
[Cu med, cong]
+23.6 +4.3 29 +23 +32 комфорт 1012.1 928.5
09 12.06 штиль 0 50 км 8/5 600 м
[Cu med, cong Cs]
+24.8 +3.6 25 +24 +28 комфорт 1010.0 926.9
12 12.06 штиль 0 50 км 5/3 600 м
[Cu hum Ac lent Ci]
+23.5 +3.0 26 +23 +23 комфорт 1009.8 926.4 +25.4
15 12.06 штиль 0 н/о ясно +16.6 +2.4 38 +17 +17 1012.7 927.1
18 12.06 штиль 0 н/о ясно +11.8 +2.2 52 +12 +12 1014.6 927.4
21 12.06 штиль 0 50 км ясно +9.6 +2.3 60 +9 +9 1015.4 927.5
00 13.06 штиль 0 50 км 3/0
[Ci sp]
+15.6 +3.7 45 +16 +22 1013.3 927.4 +9.3
03 13.06 штиль 0 50 км 4/3 600 м
[Cu hum Ac lent Ci sp]
+24.5 +3.4 25 +24 +37 комфорт 1009.2 926.0
06 13.06 штиль 0 50 км 8/3 600 м
[Cu hum Cs]
+28.7 +0.6 16 +26 +40 жарко 1005.2 923.5
09 13.06 штиль 0 50 км 8/3 600 м
[Cu hum Ac lent Cs]
+29.7 -1.9 13 +27 +31 жарко 1002.8 921.5
12 13.06 штиль 0 50 км 8/0
[Ac As Cs]
+28.4 -1.3 14 +26 +26 жарко 1002.6 921.0 +31.5
15 13.06 штиль 0 н/о 4/0
[Ac lent]
+22.8 +0.7 23 +22 +22 комфорт 1004.7 921.4
18 13.06 штиль 0 н/о 6/0
[Ac und]
+20.3 +1.2 28 +20 +20 1005.0 921.1
21 13.06 штиль 0 50 км 9/0
[Ac As]
+21.8 +2.3 28 +22 +22 комфорт 1003.6 920.1
00 14.06 штиль 0 50 км 8/8 600 м
[Sc]
+24.1 +2.1 24 +23 +25 комфорт 1002.3 919.6 +19.1
03 14.06 штиль 0 50 км 9/5 600 м
[Sc Ac As]
+27.1 +2.2 20 +25 +30 комфорт 1000.8 929.0
06 14.06 З 1 50 км 9/6 1000 м
[Sc Ac As]
+32.6 -0.1 12 +29 +33 жарко 1003.1 916.9
09 14.06 ЮЗ 8
{14}
50 км пыльный позёмок 9/9 1000 м
[Sc]
+32.2 -1.5 11 +29 +29 жарко 995.5 915.5
12 14.06 Ю 3 50 км 9/5 1000 м
[Sc Ac As]
+30.8 -2.0 12 +28 +28 жарко 996.3 915.8 +33.0
15 14.06 штиль 0 н/о 9/0
[Ac As]
+26.9 -2.4 14 +24 +24 комфорт 996.3 914.8
18 14.06 штиль 0 н/о 9/9 1000 м
[Sc]
+23.4 -2.1 18 +22 +22 комфорт 996.9 914.5
21 14.06 ЮВ 3 50 км 9/9 1000 м
[Sc]
+23.4 -1.3 19 +22 +22 комфорт 997.2 914.7
00 15.06 Ю 1 20 км слаб. дождь 10/10 1000 м
[Sc]
+18.4 +12.2 67 +20 +20 999.8 915.8 +17.9 1
03 15.06 Ю 7 10 км слаб. дождь 10/0 600 м
[As op]
+18.0 +10.3 61 +17 +18 999.6 915.4
06 15.06 ЮЗ 9
{13}
50 км в посл. час дождь 9/9 1000 м
[Cu Sc]
+23.2 +10.4 44 +25 +25 комфорт 995.9 913.5
09 15.06 ЮЗ 5
{11}
50 км 10/9 1000 м
[Cu Sc]
+25.3 +9.1 36 +26 +26 жарко 994.1 912.4
12 15.06 штиль 0 50 км в посл. час гроза 9/9 1000 м
[Cu Sc]
+18.7 +9.9 57 +19 +19 918.4 914.6 +25.3 0.0
15 15.06 штиль 0 н/о {дождь} 8/8 1000 м
[Cu Sc]
+17.2 +8.1 55 +17 +17 1000.0 915.6
18 15.06 штиль 0 н/о {дождь} 8/8 1000 м
[Cb calv]
+17.2 +8.4 56 +17 +17 999.0 914.7
21 15.06 штиль 0 50 км 9/9 600 м
[Cu Sc]
+15.5 +8.9 65 +15 +15 999.9 915.0
00 16.06 штиль 0 50 км 9/9 1000 м
[Sc]
+15.8 +9.1 64 +16 +16 1001.8 916.8 +14.0 0.0
03 16.06 штиль 0 50 км 8/8 1000 м
[Sc]
+20.7 +10.7 53 +22 +26 комфорт 1000.6 917.1
06 16.06 штиль 0 50 км 8/8 1000 м
[Cu Sc]
+23.1 +8.2 38 +24 +29 комфорт 998.7 916.0
09 16.06 ЮЗ 5 50 км в посл. час ливневой дождь {гроза} 9/9 1000 м
[Cb calv]
+19.4 +12.0 62 +20 +21 1001.2 917.3
12 16.06 штиль 0 50 км в посл. час дождь {гроза, ливн. осадки} 8/8 1000 м
[Sc]
+15.5 +13.1 86 +15 +15 1004.0 918.8 +23.5 13
15 16.06 штиль 0 н/о 8/8
[Sc]
+15.3 +13.4 88 +15 +15 1004.6 919.3
18 16.06 штиль 0 н/о 9/9 1000 м
[Sc]
+14.9 +13.4 91 +15 +15 1005.3 919.8
21 16.06 штиль 0 50 км {дождь} 8/8 1000 м
[Sc]
+13.8 +12.5 92 +13 +13 1005.7 919.9
00 17.06 штиль 0 50 км {дождь} 8/8 1000 м
[Sc]
+15.3 +13.5 89 +15 +16 1006.0 920.6 +13.5 0.1
03 17.06 штиль 0 50 км 8/5 600 м
[Cu Sc Ac trans]
+19.4 +13.3 68 +21 +27 комфорт 1005.3 921.1
06 17.06 штиль 0 50 км в посл. час гроза 8/8 600 м
[Cu med, cong]
+23.7 +12.8 50 +26 +30 жарко 1003.2 920.3
09 17.06 штиль 0 50 км {гроза} 8/8 1000 м
[Cb calv]
+21.9 +12.4 55 +24 +26 комфорт 1003.4 920.1
12 17.06 штиль 0 50 км {гроза} 6/3 600 м
[Cu hum Ac lent Ci]
+23.9 +9.8 41 +25 +25 комфорт 1003.4 920.6 +24.4
15 17.06 штиль 0 н/о 4/0
[Ac lent Ci]
+18.5 +13.2 71 +19 +19 1006.8 922.2
18 17.06 штиль 0 н/о 3/0
[Ac lent]
+14.2 +12.2 88 +14 +14 1009.0 923.0

 

Местоположение метеостанции Хадатын (Монголия): широта 49.45 долгота 107.20 высота над уровнем моря 762 м.

В архиве по умолчанию представлена погода в Хадатыне за последнюю неделю. Архивные данные за месяц целиком и за предыдущие месяцы, начиная с января 2011 года, Вы можете получить, выбрав интересующий диапазон дат из раскрывающегося списка и нажав кнопку "Ввод!".


*Определитесь, кто Вы:
робот инопланетянин человек

Внимание! Время в таблицах - всемирное. Для получения местного времени необходимо прибавить поправку, которая равна 8 ч.

Смотрите также архив погоды в соседних городах и на ближайших метеорологических станциях:

Погода в Улыгайин Дуганг (Монголия) (57 км)
Погода в Баруунхараа (Монголия) (102 км)
Погода в Мензе (Забайкальский край, Россия) (116 км)
Погода в Кяхте (Бурятия, Россия) (117 км)
Погода в Бичуре (Бурятия, Россия) (130 км)
Погода в Красном Чикое (Забайкальский край, Россия) (148 км)
Погода в Улан-Баторе (Монголия) (172 км)
Погода в Улан-Батор аэропорту (Монголия) (180 км)
Погода в Мухоршибири (Бурятия, Россия) (181 км)
Погода в Петропавловке (Бурятия, Россия) (188 км)

Пояснения к столбцам:

Ветер - указаны скорость ветра в м/с - средняя за 10 мин, порывы в срок и между сроками (в фигурных скобках) и направление, откуда дует ветер: С - северный, СВ - северо-восточный, В - восточный, ЮВ - юго-восточный, Ю - южный, ЮЗ - юго-западный, З - западный, СЗ - северо-западный.
Видимость - горизонтальная дальность видимости в метрах или километрах. При видимости от 1 до 10 км при отсутствии осадков обычно наблюдается дымка, при ухудшении видимости до 1 км и менее - туман. В сухую погоду видимость может ухудшаться дымом, пылью или мглою.
Явления - указаны атмосферные явления, наблюдавшиеся в срок или в последний час перед сроком; фигурными скобками обозначены явления, наблюдавшиеся между сроками (за 1-3 часа до срока); квадратными скобками обозначены град или гололедные отложения с указанием их диаметра в мм.
Облачность - указаны через наклонную черту общая и нижняя облачность в баллах и высота нижней границы облаков в метрах; квадратными скобками обозначены формы облаков: Ci - перистые, Cs - перисто-слоистые, Cc - перисто-кучевые, Ac - высококучевые, As - высокослоистые, Sc - слоисто-кучевые, Ns - слоисто-дождевые, Cu - кучевые, Cb - кучево-дождевые. Подробнее классификацию облаков см. в Атласе облаков (PDF).
T - Температура воздуха - температура, измеренная на высоте 2 м над землей.
Td - Температура точки росы - температура, при понижении до которой содержащийся в воздухе водяной пар достигнет насыщения.
f - Относительная влажность воздуха - влажноcть воздуха, измеренная на высоте 2 м над землей.
Te - Эффективная температура - температура, которую ощущает одетый по сезону человек в тени. Характеристика душности погоды. При расчете учитывается влияние влажности воздуха и скорости ветра на теплоощущения человека.
Tes - Эффективная температура на солнце - температура, которую ощущает человек, с поправкой на солнечный нагрев. Характеристика знойности погоды. Зависит от высоты солнца над горизонтом, облачности и скорости ветра. Ночью, в пасмурную погоду, а также при ветре 12 м/с и более поправка равна нулю.
P - Атмосферное давление - приведенное к уровню моря атмосферное давление.
Po - Атмосферное давление - измеренное на уровне метеостанции атмосферное давление.
Tmin - Минимальная температура - минимум температуры воздуха на высоте 2 м над землей.
Tmax - Максимальная температура - максимум температуры воздуха на высоте 2 м над землей.
R - Количество осадков - Количество выпавших осадков за период времени, мм. При наведении курсора мыши на число - период времени, за который выпало указанное количество осадков.
R24 - Количество осадков - Количество выпавших осадков за 24 часа, мм.
S - Снежный покров - Высота снежного покрова, см. При наведении курсора мыши на число - состояние снежного покрова и степень покрытия местности в баллах.